Meteo orario Al-Jadida

Oggi, 22 Ottobre, Giovedi

Tempo Temperatura Precipitazioni Vento Pressione Umidità
00:00 +20°C° 0.4 mm 5 m/s 759 mm Hg 84%
01:00 +20°C° 0.4 mm 5 m/s 759 mm Hg 82%
02:00 +20°C° 0.4 mm 5 m/s 758 mm Hg 81%
03:00 +20°C° 0.5 mm 4 m/s 758 mm Hg 81%
04:00 +20°C° 0.5 mm 4 m/s 759 mm Hg 81%
05:00 +20°C° 0.5 mm 4 m/s 759 mm Hg 81%
06:00 +20°C° 0.3 mm 4 m/s 759 mm Hg 76%
07:00 +21°C° 0.3 mm 4 m/s 760 mm Hg 70%
08:00 +22°C° 0.3 mm 5 m/s 760 mm Hg 64%
09:00 +23°C° 0.1 mm 5 m/s 760 mm Hg 60%
10:00 +23°C° 0.1 mm 6 m/s 760 mm Hg 56%
11:00 +24°C° 0.1 mm 7 m/s 761 mm Hg 52%
12:00 +24°C° 0 mm 6 m/s 761 mm Hg 53%
13:00 +24°C° 0 mm 6 m/s 761 mm Hg 54%
14:00 +23°C° 0 mm 5 m/s 761 mm Hg 55%
15:00 +22°C° 0 mm 5 m/s 761 mm Hg 60%
16:00 +22°C° 0 mm 4 m/s 761 mm Hg 64%
17:00 +21°C° 0 mm 4 m/s 762 mm Hg 69%
18:00 +20°C° 0 mm 3 m/s 763 mm Hg 73%
19:00 +20°C° 0 mm 3 m/s 763 mm Hg 76%
20:00 +19°C° 0 mm 2 m/s 764 mm Hg 79%
21:00 +19°C° 0 mm 2 m/s 764 mm Hg 80%
22:00 +19°C° 0 mm 2 m/s 764 mm Hg 80%
23:00 +19°C° 0 mm 2 m/s 765 mm Hg 81%

Domani, 23 Ottobre, Venerdi

Tempo Temperatura Precipitazioni Vento Pressione Umidità
00:00 +18°C° 0 mm 2 m/s 765 mm Hg 81%
01:00 +19°C° 0 mm 1 m/s 765 mm Hg 82%
02:00 +19°C° 0 mm 1 m/s 765 mm Hg 83%
03:00 +18°C° 0 mm 1 m/s 765 mm Hg 83%
04:00 +18°C° 0 mm 1 m/s 765 mm Hg 83%
05:00 +16°C° 0 mm 0 m/s 765 mm Hg 84%
06:00 +19°C° 0 mm 1 m/s 766 mm Hg 78%
07:00 +20°C° 0 mm 1 m/s 766 mm Hg 72%
08:00 +21°C° 0 mm 1 m/s 767 mm Hg 67%
09:00 +22°C° 0 mm 1 m/s 766 mm Hg 62%
10:00 +23°C° 0 mm 2 m/s 766 mm Hg 57%
11:00 +24°C° 0 mm 2 m/s 766 mm Hg 52%
12:00 +24°C° 0 mm 3 m/s 766 mm Hg 52%
13:00 +23°C° 0 mm 4 m/s 766 mm Hg 53%
14:00 +23°C° 0 mm 5 m/s 766 mm Hg 54%
15:00 +22°C° 0 mm 5 m/s 766 mm Hg 57%
16:00 +21°C° 0 mm 5 m/s 766 mm Hg 60%
17:00 +21°C° 0 mm 5 m/s 766 mm Hg 63%
18:00 +20°C° 0 mm 5 m/s 766 mm Hg 66%
19:00 +20°C° 0 mm 4 m/s 767 mm Hg 68%
20:00 +20°C° 0 mm 4 m/s 767 mm Hg 70%
21:00 +19°C° 0 mm 4 m/s 767 mm Hg 71%
22:00 +19°C° 0 mm 4 m/s 767 mm Hg 73%
23:00 +19°C° 0 mm 4 m/s 767 mm Hg 74%

Dopodomani, 24 Ottobre, Sabato

Tempo Temperatura Precipitazioni Vento Pressione Umidità
00:00 +19°C° 0 mm 4 m/s 767 mm Hg 75%
01:00 +18°C° 0 mm 4 m/s 767 mm Hg 77%
02:00 +18°C° 0 mm 4 m/s 767 mm Hg 79%
03:00 +18°C° 0 mm 4 m/s 767 mm Hg 80%
04:00 +18°C° 0 mm 3 m/s 767 mm Hg 82%
05:00 +17°C° 0 mm 3 m/s 767 mm Hg 83%
06:00 +19°C° 0 mm 4 m/s 767 mm Hg 78%
07:00 +20°C° 0 mm 4 m/s 768 mm Hg 73%
08:00 +21°C° 0 mm 4 m/s 768 mm Hg 67%
09:00 +22°C° 0 mm 5 m/s 768 mm Hg 63%
10:00 +23°C° 0 mm 5 m/s 767 mm Hg 58%
11:00 +25°C° 0 mm 5 m/s 767 mm Hg 54%
12:00 +23°C° 0 mm 6 m/s 767 mm Hg 55%
13:00 +23°C° 0 mm 6 m/s 767 mm Hg 56%
14:00 +23°C° 0 mm 7 m/s 766 mm Hg 57%
15:00 +22°C° 0 mm 7 m/s 766 mm Hg 62%
16:00 +21°C° 0 mm 7 m/s 766 mm Hg 66%
17:00 +20°C° 0 mm 6 m/s 766 mm Hg 70%
18:00 +20°C° 0 mm 6 m/s 767 mm Hg 73%
19:00 +19°C° 0 mm 6 m/s 767 mm Hg 76%
20:00 +19°C° 0 mm 5 m/s 767 mm Hg 79%
21:00 +17°C° 0 mm 5 m/s 767 mm Hg 81%
22:00 +17°C° 0 mm 5 m/s 767 mm Hg 82%
23:00 +17°C° 0 mm 5 m/s 767 mm Hg 84%

, 25 Ottobre, Domenica

Tempo Temperatura Precipitazioni Vento Pressione Umidità
00:00 +17°C° 0 mm 5 m/s 767 mm Hg 84%
01:00 +17°C° 0 mm 4 m/s 766 mm Hg 84%
02:00 +17°C° 0 mm 4 m/s 766 mm Hg 84%
03:00 +17°C° 0 mm 4 m/s 766 mm Hg 84%
04:00 +17°C° 0 mm 4 m/s 766 mm Hg 85%
05:00 +17°C° 0 mm 4 m/s 766 mm Hg 85%
06:00 +18°C° 0 mm 3 m/s 766 mm Hg 79%
07:00 +19°C° 0 mm 3 m/s 766 mm Hg 74%
08:00 +20°C° 0 mm 3 m/s 766 mm Hg 68%
09:00 +21°C° 0 mm 4 m/s 766 mm Hg 64%
10:00 +21°C° 0 mm 4 m/s 766 mm Hg 59%
11:00 +22°C° 0 mm 5 m/s 767 mm Hg 54%
12:00 +22°C° 0 mm 5 m/s 766 mm Hg 54%
13:00 +22°C° 0 mm 5 m/s 766 mm Hg 53%
14:00 +22°C° 0 mm 5 m/s 765 mm Hg 53%
15:00 +21°C° 0 mm 4 m/s 765 mm Hg 58%
16:00 +20°C° 0 mm 4 m/s 765 mm Hg 62%
17:00 +19°C° 0 mm 4 m/s 766 mm Hg 66%
18:00 +19°C° 0 mm 4 m/s 766 mm Hg 69%
19:00 +18°C° 0 mm 3 m/s 766 mm Hg 72%
20:00 +18°C° 0 mm 3 m/s 767 mm Hg 74%
21:00 +18°C° 0 mm 2 m/s 766 mm Hg 76%
22:00 +17°C° 0 mm 2 m/s 766 mm Hg 77%
23:00 +18°C° 0 mm 1 m/s 766 mm Hg 79%

25 Ottobre, Domenica

Tempo Temperatura Precipitazioni Vento Pressione Umidità
00:00 +17°C° 0 mm 5 m/s 767 mm Hg 84%
01:00 +17°C° 0 mm 4 m/s 766 mm Hg 84%
02:00 +17°C° 0 mm 4 m/s 766 mm Hg 84%
03:00 +17°C° 0 mm 4 m/s 766 mm Hg 84%
04:00 +17°C° 0 mm 4 m/s 766 mm Hg 85%
05:00 +17°C° 0 mm 4 m/s 766 mm Hg 85%
06:00 +18°C° 0 mm 3 m/s 766 mm Hg 79%
07:00 +19°C° 0 mm 3 m/s 766 mm Hg 74%
08:00 +20°C° 0 mm 3 m/s 766 mm Hg 68%
09:00 +21°C° 0 mm 4 m/s 766 mm Hg 64%
10:00 +21°C° 0 mm 4 m/s 766 mm Hg 59%
11:00 +22°C° 0 mm 5 m/s 767 mm Hg 54%
12:00 +22°C° 0 mm 5 m/s 766 mm Hg 54%
13:00 +22°C° 0 mm 5 m/s 766 mm Hg 53%
14:00 +22°C° 0 mm 5 m/s 765 mm Hg 53%
15:00 +21°C° 0 mm 4 m/s 765 mm Hg 58%
16:00 +20°C° 0 mm 4 m/s 765 mm Hg 62%
17:00 +19°C° 0 mm 4 m/s 766 mm Hg 66%
18:00 +19°C° 0 mm 4 m/s 766 mm Hg 69%
19:00 +18°C° 0 mm 3 m/s 766 mm Hg 72%
20:00 +18°C° 0 mm 3 m/s 767 mm Hg 74%
21:00 +18°C° 0 mm 2 m/s 766 mm Hg 76%
22:00 +17°C° 0 mm 2 m/s 766 mm Hg 77%
23:00 +18°C° 0 mm 1 m/s 766 mm Hg 79%

26 Ottobre, Lunedi

Tempo Temperatura Precipitazioni Vento Pressione Umidità
00:00 +18°C° 0 mm 1 m/s 766 mm Hg 80%
01:00 +18°C° 0 mm 1 m/s 766 mm Hg 81%
02:00 +16°C° 0 mm 1 m/s 765 mm Hg 82%
03:00 +16°C° 0 mm 1 m/s 765 mm Hg 83%
04:00 +16°C° 0 mm 1 m/s 766 mm Hg 83%
05:00 +16°C° 0 mm 2 m/s 766 mm Hg 84%
06:00 +17°C° 0.1 mm 2 m/s 766 mm Hg 80%
07:00 +18°C° 0.1 mm 2 m/s 766 mm Hg 76%
08:00 +19°C° 0.1 mm 3 m/s 766 mm Hg 72%
09:00 +20°C° 0 mm 4 m/s 766 mm Hg 71%
10:00 +20°C° 0 mm 6 m/s 766 mm Hg 70%
11:00 +21°C° 0 mm 7 m/s 766 mm Hg 68%
12:00 +21°C° 0 mm 8 m/s 765 mm Hg 67%
13:00 +21°C° 0 mm 8 m/s 765 mm Hg 65%
14:00 +21°C° 0 mm 8 m/s 765 mm Hg 63%
15:00 +20°C° 0 mm 8 m/s 765 mm Hg 66%
16:00 +18°C° 0 mm 7 m/s 765 mm Hg 68%
17:00 +18°C° 0 mm 7 m/s 765 mm Hg 70%
18:00 +17°C° 0 mm 7 m/s 765 mm Hg 70%
19:00 +17°C° 0 mm 7 m/s 765 mm Hg 70%
20:00 +17°C° 0 mm 7 m/s 765 mm Hg 70%
21:00 +16°C° 0 mm 7 m/s 765 mm Hg 70%
22:00 +16°C° 0 mm 7 m/s 765 mm Hg 70%
23:00 +16°C° 0 mm 7 m/s 765 mm Hg 70%

27 Ottobre, Martedi

Tempo Temperatura Precipitazioni Vento Pressione Umidità
00:00 +16°C° 0 mm 7 m/s 764 mm Hg 72%
01:00 +15°C° 0 mm 6 m/s 764 mm Hg 74%
02:00 +15°C° 0 mm 6 m/s 764 mm Hg 76%
03:00 +15°C° 0 mm 6 m/s 764 mm Hg 76%
04:00 +14°C° 0 mm 5 m/s 764 mm Hg 76%
05:00 +14°C° 0 mm 5 m/s 763 mm Hg 76%
06:00 +15°C° 0 mm 5 m/s 764 mm Hg 72%
07:00 +16°C° 0 mm 6 m/s 764 mm Hg 67%
08:00 +19°C° 0 mm 6 m/s 764 mm Hg 62%
09:00 +19°C° 0 mm 6 m/s 764 mm Hg 59%
10:00 +20°C° 0 mm 7 m/s 763 mm Hg 56%
11:00 +21°C° 0 mm 7 m/s 763 mm Hg 53%
12:00 +21°C° 0 mm 8 m/s 763 mm Hg 55%
13:00 +21°C° 0 mm 8 m/s 763 mm Hg 57%
14:00 +21°C° 0 mm 8 m/s 762 mm Hg 59%
15:00 +20°C° 0 mm 8 m/s 763 mm Hg 62%
16:00 +18°C° 0 mm 7 m/s 763 mm Hg 66%
17:00 +18°C° 0 mm 7 m/s 763 mm Hg 69%
18:00 +17°C° 0 mm 7 m/s 763 mm Hg 71%
19:00 +17°C° 0 mm 6 m/s 763 mm Hg 73%
20:00 +17°C° 0 mm 6 m/s 764 mm Hg 75%
21:00 +16°C° 0 mm 6 m/s 764 mm Hg 76%
22:00 +16°C° 0 mm 6 m/s 764 mm Hg 76%
23:00 +16°C° 0 mm 6 m/s 763 mm Hg 77%
Mostrare altro

Abbiamo bisogno del tuo consenso

Meteoprog e i nostri fornitori di servizi possono memorizzare e accedere a dati personali come cookie, identificatori di dispositivi o altre tecnologie simili sul tuo dispositivo e possono elaborare tali dati per personalizzare i contenuti e gli annunci, nonché fornire funzionalità dei social media e analizzarne il traffico.

  • Archiviare e/o accedere alle informazioni sul tuo dispositivo

    Cookie, identificatori di dispositivi o altre informazioni possono essere memorizzati o resi accessibili sul tuo dispositivo per le finalità sopra indicate.

  • Annunci e contenuti personalizzati, misurazione di annunci e contenuti, approfondimenti sul pubblico e sviluppo di prodotti

    Gli annunci e i contenuti possono essere personalizzati in base a un profilo. È possibile aggiungere più dati per personalizzare meglio annunci e contenuti. È possibile misurare il rendimento degli annunci e dei contenuti. È possibile ricavare informazioni sul pubblico che ha visto gli annunci e i contenuti. Tali dati possono essere utilizzati per sviluppare o migliorare l'esperienza, i sistemi e il software dell'utente.

Cliccando su “Accetto”, acconsenti all'uso di cookie, identificatori di dispositivo, web beacon o altre tecnologie simili. Puoi modificare le impostazioni nel browser del tuo dispositivo.

Per determinati scopi, è possibile fare affidamento su interessi legali, piuttosto che sul consenso. Puoi approfondire questo argomento consultando la nostra Informativa sulla privacy e sui cookie.